Regional Weather Roundup
Issued by NWS

Home | Current Version | Previous Version | Text Only | Print | Product List | Glossary Off
Versions: 1 2 3 4 5 6 7 8 9 10 11 12 13 14 15 16 17 18 19 20 21 22 23 24 25 26 27

000
ASUS45 KSLC 250610
RWRUT

UTAH REGIONAL WEATHER ROUNDUP
NATIONAL WEATHER SERVICE SALT LAKE CITY UT
1100 PM MST FRI FEB 24 2017

UTZ001>011-023>025-250700-

NORTHERN UTAH

CITY           SKY/WX    TMP DP  RH WIND       PRES   REMARKS
BRIGHAM CITY     N/A     24  19  81 CALM      30.15S
HILL AFB       FLURRIES  21  12  67 E9        30.12S WCI  11
LOGAN          CLEAR     20  12  71 S5        30.14S WCI  13
OGDEN          CLOUDY    22  13  68 S8        30.13S WCI  12
SALT LAKE CITY PTCLDY    24  13  62 SE9       30.15R WCI  14
TOOELE VALLEY  PTCLDY    23  18  80 S13       30.15S WCI  11
WENDOVER       CLEAR     23  10  58 CALM      30.13S
HEBER CITY     PTCLDY     3   0  85 SE3       30.11R
WEST JORDAN    PTCLDY    23  19  84 S7        30.14S WCI  14

$$

UTZ011>015-024>027-250700-

CENTRAL/NORTHEAST UTAH

CITY           SKY/WX    TMP DP  RH WIND       PRES   REMARKS
PROVO AIRPORT  PTCLDY    15  12  88 SE5       30.17R WCI   8
MOAB/CANYONLAN CLEAR     27   9  46 W10       30.09S WCI  17
DELTA          CLEAR     21  14  73 CALM      30.13S
PRICE          PTCLDY    18  10  71 CALM      30.07S
RICHFIELD      CLEAR     18  12  79 CALM      30.15S
ROOSEVELT      PTCLDY    19  12  73 SW8       30.11F WCI   9
VERNAL         CLOUDY    19  11  70 N6        30.09S WCI  11

$$

UTZ013>016-019>022-027-250700-

SOUTHERN UTAH

CITY           SKY/WX    TMP DP  RH WIND       PRES   REMARKS
BRYCE CANYON   PTCLDY    -4  -9  79 CALM      30.05R
CEDAR CITY     CLEAR     24   8  50 SE6       30.08R WCI  17
MILFORD        CLEAR     20  14  77 S3        30.11S
ST GEORGE      PTCLDY    34  15  46 SE6       30.15S WCI  29
HANKSVILLE     CLEAR     27   3  36 CALM      30.15S
KANAB          CLEAR     23  14  68 N2        30.16R
BLANDING       CLEAR     21  10  61 N8        30.13S WCI  11

$$

REGIONAL REPORTS     COLORADO/ARIZONA

CITY           SKY/WX    TMP DP  RH WIND       PRES   REMARKS
CRAIG, CO      CLOUDY    10   5  80 SE5       30.07S WCI   2
GRAND JUNCTION CLEAR     19  16  88 NE3       30.10R
RIFLE, CO      PTCLDY    19  16  88 S5        30.08S WCI  12
MONTROSE, CO   CLEAR     17  11  77 SE6       30.12R WCI   9
CORTEZ, CO     PTCLDY    19  15  84 NE5       30.07F WCI  12
COLORADO CITY    N/A     23  18  80 CALM      30.15S
PAGE, AZ       CLEAR     34   1  24 NW3       30.11R
GRAND CANYON   CLEAR     16  13  88 CALM      30.10R
KINGMAN, AZ    CLEAR     31   6  35 SE7       30.14S WCI  24
FLAGSTAFF, AZ  CLEAR     24  13  62 S7        30.10R WCI  16

$$

REGIONAL REPORTS    NEVADA/IDAHO/WYOMING

CITY           SKY/WX    TMP DP  RH WIND       PRES   REMARKS
LAS VEGAS, NV  CLEAR     45  12  26 E3        30.12S
ELY, NY        CLEAR      5  -1  76 S14       30.06S WCI -12
ELKO, NV       CLEAR     20  13  74 CALM      30.08R
POCATELLO, ID  CLOUDY    10   4  76 S7        30.12F WCI  -1
BURLEY, ID     MOCLDY    21  10  62 SW10      30.11F WCI  10
FORT BRIDGER,    N/A     10   4  77 SW16      30.05S WCI  -7
EVANSTON, WY   CLOUDY     8   1  73 S7        30.02F WCI  -3
ROCK SPRINGS,  CLOUDY     9   3  77 SW16      30.01R WCI  -8

$$




USA.gov is the U.S. government's official web portal to all federal, state and local government web resources and services.